Ann Arbor, MI

10:15 PM EDT on August 17, 2017 (GMT -0400)
Ann Arbor Municipal

Weather History for KARB - March, 2012

Change the Weather History Date:

Monday, March 26, 2012

  Actual Average Record
Temperature  
Mean Temperature 40 °F -  
Max Temperature 48 °F 46 °F 80 °F (2007)
Min Temperature 33 °F 27 °F 7 °F (2001)
Degree Days  
Heating Degree Days 24    
Moisture  
Dew Point 22 °F    
Average Humidity 50    
Maximum Humidity 70    
Minimum Humidity 34    
Precipitation  
Precipitation 0.00 in - - ()
Sea Level Pressure  
Sea Level Pressure 30.31 in    
Wind  
Wind Speed 12 mph (NE)    
Max Wind Speed 15 mph    
Max Gust Speed 25 mph    
Visibility 10 miles    
Events      
Averages and records for this station are not official NWS values.
T = Trace of Precipitation, MM = Missing Value Source: NWS Daily Summary

Daily Weather History Graph

Daily Weather History Graph

Search for Another Location

Airport or City:

Trip Planner

Search our weather history database for the weather conditions in past years. The results will help you decide how hot, cold, wet, or windy it might be!

Date:

Astronomy

Mar. 26, 2012 Rise Set
Actual Time 7:27 AM EDT 7:54 PM EDT
Civil Twilight 6:58 AM EDT 8:22 PM EDT
Nautical Twilight 6:25 AM EDT 8:55 PM EDT
Astronomical Twilight 5:51 AM EDT 9:30 PM EDT
Moon 9:10 AM EDT (3/26) No Moon Set
Length of Visible Light 13h 23m
Length of Day
12h 27m
Waxing Crescent, 14% of the Moon is Illuminated
Mar 26
Waxing Crescent
Mar 30
First Quarter
Apr 6
Full
Apr 13
Last Quarter
Apr 21
New

Hourly Weather History & Observations

Time (EDT) Temp. Windchill Dew Point Humidity Pressure Visibility Wind Dir Wind Speed Gust Speed Precip Events Conditions
12:53 AM 48.0 °F - 28.0 °F 46% 30.08 in 10.0 mi North 15.0 mph 21.9 mph N/A   Clear
1:53 AM 46.0 °F 39.6 °F 30.0 °F 54% 30.10 in 10.0 mi North 15.0 mph 19.6 mph N/A   Clear
2:53 AM 43.0 °F 37.2 °F 30.9 °F 62% 30.12 in 10.0 mi North 10.4 mph 18.4 mph N/A   Clear
3:53 AM 39.9 °F 31.8 °F 28.0 °F 63% 30.14 in 10.0 mi North 15.0 mph 20.7 mph N/A   Clear
4:53 AM 37.0 °F 28.5 °F 26.1 °F 65% 30.17 in 10.0 mi NNE 13.8 mph 21.9 mph 0.00 in   Clear
5:53 AM 36.0 °F - 26.1 °F 67% 30.21 in 10.0 mi North - - N/A   Clear
6:53 AM 34.0 °F 25.5 °F 25.0 °F 70% 30.26 in 10.0 mi NNE 11.5 mph 19.6 mph N/A   Partly Cloudy
7:53 AM 33.1 °F 23.4 °F 23.0 °F 66% 30.29 in 10.0 mi NNE 13.8 mph 19.6 mph N/A   Scattered Clouds
8:53 AM 34.0 °F 24.2 °F 21.0 °F 59% 30.33 in 10.0 mi NNE 15.0 mph 25.3 mph N/A   Partly Cloudy
9:53 AM 37.0 °F 28.1 °F 23.0 °F 57% 30.35 in 10.0 mi NNE 15.0 mph 20.7 mph N/A   Partly Cloudy
10:53 AM 39.0 °F 30.6 °F 21.9 °F 50% 30.37 in 10.0 mi NNE 15.0 mph 24.2 mph N/A   Partly Cloudy
11:53 AM 39.9 °F 32.9 °F 21.9 °F 49% 30.39 in 10.0 mi NE 11.5 mph 20.7 mph N/A   Clear
12:53 PM 42.1 °F 34.9 °F 21.9 °F 45% 30.39 in 10.0 mi NE 13.8 mph 18.4 mph N/A   Clear
1:53 PM 44.1 °F 38.1 °F 23.0 °F 43% 30.38 in 10.0 mi NNE 11.5 mph 16.1 mph N/A   Clear
2:53 PM 44.1 °F 37.7 °F 21.0 °F 40% 30.38 in 10.0 mi ENE 12.7 mph 17.3 mph N/A   Clear
3:53 PM 46.0 °F 40.6 °F 21.9 °F 39% 30.36 in 10.0 mi NE 11.5 mph 16.1 mph N/A   Clear
4:53 PM 46.0 °F 43.9 °F 19.0 °F 34% 30.36 in 10.0 mi Variable 4.6 mph - N/A   Clear
5:53 PM 45.0 °F 42.6 °F 19.0 °F 36% 30.37 in 10.0 mi ENE 4.6 mph - N/A   Clear
6:53 PM 44.1 °F 39.5 °F 18.0 °F 35% 30.37 in 10.0 mi NE 8.1 mph - N/A   Clear
7:53 PM 41.0 °F 35.8 °F 18.0 °F 40% 30.38 in 10.0 mi ENE 8.1 mph - N/A   Clear
8:53 PM 39.0 °F 33.4 °F 19.0 °F 45% 30.38 in 10.0 mi ENE 8.1 mph - N/A   Clear
9:53 PM 37.0 °F 31.6 °F 18.0 °F 46% 30.41 in 10.0 mi ENE 6.9 mph - N/A   Clear
10:53 PM 35.1 °F 30.1 °F 16.0 °F 46% 30.41 in 10.0 mi ENE 5.8 mph - N/A   Clear
11:53 PM 33.1 °F 28.7 °F 17.1 °F 52% 30.41 in 10.0 mi ENE 4.6 mph - N/A   Clear